GFSNW_sfc_rhum_057.txt.gz
RH
79 77 78 77 79 82 84 96 96 90 80 99 89 82 68 58 44 46 57 59 59 47 38 39 38 36 29 28 38 34 43 51 56 39 43 44 40 41 46 68 50 70 80 52
76 82 77 75 80 83 90 91 88 90 79 96 92 71 65 59 50 53 52 60 58 54 43 39 40 40 34 37 38 44 47 57 64 46 44 51 51 46 48 57 66 66 76 57
76 88 76 71 75 82 85 91 95 98 95 69 71 75 76 70 56 56 55 56 58 59 52 41 41 40 52 53 40 67 48 55 50 55 43 41 47 43 41 49 76 59 64 46
80 79 83 75 74 82 85 93 72 79 90 91 78 64 67 72 66 58 52 56 56 60 64 48 45 58 53 52 60 53 46 51 47 46 41 38 38 37 43 46 49 54 46 49
81 80 78 77 83 90 94 90 87 89 90 70 78 67 65 69 64 55 57 51 52 49 56 48 47 53 55 50 52 50 50 52 49 65 55 47 48 40 41 43 41 47 45 44
83 81 78 78 76 91 97 64 84 87 82 74 75 75 63 61 55 54 45 45 44 48 54 52 47 43 47 44 50 54 54 66 69 58 59 58 66 52 42 40 39 39 46 39
80 78 74 75 76 86 98 57 88 94 84 79 68 64 56 59 55 56 46 42 52 49 51 51 55 62 63 57 62 56 64 69 77 78 74 72 45 46 40 43 46 44 46 48
80 77 74 76 76 81 98 81 90 97 96 75 70 69 65 57 52 54 48 46 36 56 66 67 69 82 73 67 68 70 65 80 86 77 80 60 50 39 40 39 44 49 56 57
78 74 72 74 75 75 95 87 89 96 96 80 65 70 67 71 65 60 57 63 75 70 83 86 76 82 74 77 65 64 68 80 80 89 79 80 61 46 33 39 59 46 51 61
76 74 75 77 79 81 93 90 96 96 99 90 80 78 76 62 64 72 67 87 87 79 98 95 88 76 63 79 75 78 92 96 87 97 87 75 52 41 36 46 51 54 57 59
77 78 78 79 79 81 93 88 97 97 99 95 95 88 72 70 62 80 82 82 90 95 98 94 94 90 80 77 66 71 76 92 93 94 84 73 49 49 42 50 72 65 67 72
80 78 80 84 86 88 89 94 97 96 99 97 94 90 83 85 76 59 88 77 87 86 95 98 98 96 95 84 86 68 65 69 80 73 75 63 69 50 67 67 68 74 72 76
86 85 82 80 84 88 91 87 98 96 96 95 97 91 84 81 82 82 84 91 80 88 88 98 98 91 92 93 90 83 68 70 80 73 75 85 84 83 78 74 77 74 77 73
84 85 85 86 86 83 87 89 96 93 97 100 92 76 91 85 84 87 80 70 92 92 96 100 100 93 86 95 83 83 69 66 85 93 89 80 81 81 80 80 79 76 73 67
85 85 85 86 85 87 92 96 93 90 98 100 98 84 79 83 93 91 78 84 92 94 95 100 96 93 89 94 87 86 65 74 84 87 78 77 83 82 79 79 82 78 76 78
86 86 87 90 86 83 90 96 95 96 92 99 100 92 95 88 95 91 83 85 96 96 95 100 92 87 87 92 90 67 77 76 64 66 70 85 85 83 78 82 81 78 76 74
89 91 89 89 86 87 94 92 94 88 90 96 99 97 91 96 96 97 98 96 99 97 98 99 95 96 91 97 92 82 82 81 81 77 76 87 85 92 80 78 78 78 80 80
90 92 89 85 82 85 93 99 90 86 93 94 100 99 99 96 100 100 99 100 97 98 99 99 99 96 98 88 88 87 77 76 78 84 79 81 82 80 82 80 79 84 86 83
91 92 90 91 94 96 95 94 90 98 91 98 100 100 99 96 99 100 98 95 100 98 100 100 96 100 98 88 89 86 81 85 90 83 82 82 87 86 83 80 80 81 82 82
90 88 94 99 96 95 97 96 99 100 99 99 100 98 100 96 100 100 99 100 100 100 99 96 100 99 94 91 82 86 85 81 80 92 97 94 93 88 85 79 72 75 82 89
95 98 100 97 90 91 94 100 99 99 100 99 98 99 99 99 100 100 100 100 100 99 99 98 100 99 93 92 88 82 78 78 82 78 79 78 80 83 82 80 84 86 85 89
94 97 97 99 96 98 98 99 100 100 98 99 100 99 98 99 95 99 98 98 94 98 93 99 99 98 95 91 89 87 84 79 77 75 79 79 75 76 81 86 89 90 90 83
97 95 96 96 99 99 99 98 100 99 100 99 100 100 100 97 96 99 95 91 98 96 96 97 99 98 92 89 83 81 77 80 78 76 75 79 82 81 85 93 90 82 77 74
97 100 99 99 99 99 99 99 100 100 100 100 100 100 100 100 99 99 98 100 92 100 99 96 99 98 92 83 82 84 88 88 86 87 86 87 84 84 86 86 82 77 67 74
99 99 98 99 99 99 100 100 100 100 100 100 99 99 96 100 99 99 98 98 93 95 96 99 100 96 86 87 88 89 92 93 92 91 93 92 85 78 78 77 70 73 87 89
98 98 99 99 100 99 99 100 100 99 100 99 97 98 98 99 99 99 99 97 98 100 100 100 93 89 86 86 87 89 91 94 97 96 94 90 86 80 75 78 79 87 87 89
96 99 99 99 99 99 100 100 99 99 100 99 95 92 100 98 96 98 99 99 99 100 99 95 90 96 98 98 98 98 98 97 96 92 83 79 74 73 69 73 74 67 77 91

GFSNW_sfc_rhum_063.txt.gz
RH
83 84 82 78 76 79 85 95 96 79 75 96 88 85 65 59 54 52 52 57 62 54 42 45 43 39 35 32 31 31 39 47 51 37 36 34 37 42 43 58 49 57 58 44
82 86 83 80 76 79 95 98 95 88 72 93 81 71 67 54 56 54 55 58 57 58 51 43 45 43 38 34 36 38 44 47 45 36 37 43 42 40 43 50 57 55 68 44
84 87 86 80 77 78 88 98 99 99 93 55 64 74 70 72 54 56 55 55 54 57 58 50 47 45 43 45 36 62 44 49 44 39 33 40 53 47 44 45 61 53 50 37
85 88 86 80 78 78 92 98 98 84 96 84 64 64 60 62 64 56 57 62 57 59 61 54 48 46 55 50 67 50 46 46 46 38 32 39 40 40 47 44 42 50 40 40
87 88 87 82 78 78 96 99 98 85 79 70 70 70 68 62 60 62 61 60 61 50 62 51 57 48 56 53 52 54 49 50 52 48 47 39 39 36 42 44 40 38 39 40
89 91 87 82 79 80 98 95 91 77 69 78 75 72 63 65 59 59 54 56 63 64 50 52 48 52 52 49 51 59 55 63 61 53 49 48 66 52 42 40 39 40 47 39
91 92 86 83 80 73 91 91 90 90 74 80 72 60 64 59 60 67 55 61 59 51 51 53 54 57 57 60 57 54 63 62 66 72 69 77 43 41 37 40 39 36 37 36
88 91 86 84 80 72 87 80 90 94 85 73 66 62 62 60 59 64 60 55 55 53 56 77 63 80 74 72 68 62 56 68 74 81 64 51 40 41 42 43 32 36 36 36
91 90 86 84 79 75 72 96 96 97 91 75 61 63 60 68 68 75 68 62 65 66 75 81 77 80 70 72 70 63 63 67 74 75 72 70 51 36 38 32 44 34 39 50
93 87 87 82 79 77 69 98 94 97 96 88 66 67 64 56 69 80 74 62 74 63 88 95 86 74 65 80 82 86 84 86 78 81 82 63 48 40 38 49 43 42 43 49
90 88 86 83 79 77 74 97 92 96 97 91 88 76 68 58 62 77 79 70 77 93 87 89 86 93 66 72 70 77 73 79 87 82 90 68 46 36 47 48 48 46 52 58
89 88 87 83 80 81 73 94 95 96 98 96 90 88 82 46 46 58 74 69 78 73 87 93 92 100 98 74 64 68 81 67 74 65 64 57 47 45 44 46 48 57 54 58
88 88 85 81 76 78 75 93 94 96 98 95 94 93 87 85 69 52 85 87 77 82 81 92 92 94 86 95 84 76 68 70 70 66 56 57 62 63 65 57 56 57 60 59
88 86 80 81 85 79 73 93 94 93 97 100 94 84 92 84 81 66 67 72 87 88 89 99 99 97 78 89 71 75 68 69 72 70 63 72 69 74 66 66 73 68 62 60
84 82 81 85 80 72 86 96 91 85 99 100 98 86 78 90 88 86 76 80 87 91 95 100 96 87 89 92 87 88 69 68 74 72 58 53 48 61 73 75 74 66 66 67
84 84 86 81 76 81 93 97 95 93 96 99 100 90 89 93 96 96 98 92 90 91 90 95 85 80 84 98 88 65 65 65 68 60 66 75 80 77 70 74 73 68 65 66
82 84 83 80 80 86 95 92 95 87 92 98 99 97 90 95 95 95 97 96 95 91 92 97 91 92 81 96 85 59 77 76 75 74 72 76 74 76 74 74 73 72 68 66
79 77 75 80 81 81 92 98 86 79 90 94 100 97 97 94 100 99 97 100 96 96 96 97 97 96 96 95 73 82 81 79 80 79 76 76 79 77 78 75 74 79 82 81
81 82 83 90 90 93 95 90 86 95 89 99 100 100 100 91 100 98 98 97 100 98 100 100 94 100 97 80 80 83 81 79 87 82 78 78 82 82 80 78 80 85 84 77
84 89 93 100 95 88 93 100 99 97 92 95 98 94 100 94 99 100 100 100 100 100 98 98 100 98 84 82 78 80 83 81 79 90 95 90 89 86 83 81 78 79 78 73
97 99 100 96 96 98 98 100 100 99 100 95 95 94 98 94 98 100 99 100 100 100 99 98 100 98 90 89 90 82 79 77 87 83 79 73 76 81 85 86 87 89 84 79
92 95 97 98 94 98 97 100 100 99 87 100 100 98 95 99 94 98 99 100 99 99 96 100 99 97 94 94 98 95 88 83 83 82 86 87 86 82 85 90 93 94 95 97
93 93 98 96 100 98 93 100 100 99 100 99 100 100 100 99 94 100 99 99 99 99 100 100 99 98 95 91 87 86 80 83 83 83 84 87 91 90 92 96 95 95 93 91
97 99 100 99 100 97 97 96 94 99 100 100 100 100 100 100 100 100 99 100 99 98 97 98 100 99 95 88 87 89 96 96 95 95 94 95 95 96 97 97 97 95 87 79
99 99 98 99 99 99 100 100 100 100 99 99 100 100 98 100 99 100 100 98 97 96 98 100 100 99 96 96 95 95 97 96 95 96 95 97 96 92 92 92 83 78 90 90
99 97 98 99 98 98 98 99 100 99 100 99 99 100 99 99 99 96 98 96 98 100 100 99 99 98 98 98 98 98 96 95 96 96 94 94 94 93 83 76 79 90 88 90
98 98 98 98 98 98 99 99 98 100 100 100 100 98 98 97 96 95 98 99 99 99 99 98 99 98 98 98 97 97 95 94 94 93 92 91 88 76 65 67 64 68 78 91

GFSNW_sfc_rhum_069.txt.gz
RH
84 84 84 84 85 84 91 95 98 56 70 98 91 87 52 42 29 19 23 33 30 24 29 30 28 35 17 14 14 19 18 22 26 24 16 14 17 22 23 36 31 30 35 28
85 84 84 84 85 86 96 98 89 63 65 90 91 56 50 39 32 26 27 33 30 31 40 36 27 28 22 16 16 21 20 24 34 25 21 21 23 20 20 23 25 31 60 32
85 84 84 85 86 89 96 98 99 96 95 47 54 51 46 43 34 34 23 29 27 32 41 37 34 31 26 29 18 42 32 22 27 33 24 20 26 19 18 23 43 34 28 21
86 87 85 85 88 91 95 99 80 67 95 88 53 45 35 38 36 33 34 32 32 33 39 37 43 34 31 33 37 28 25 28 22 18 16 14 15 18 17 20 22 30 23 18
90 87 84 85 88 92 98 99 57 52 48 66 59 52 44 34 28 26 33 38 29 30 33 36 42 40 36 29 26 29 24 32 26 24 18 16 17 14 15 14 14 14 15 16
85 89 85 84 87 93 97 91 43 48 61 62 64 55 45 34 26 26 23 26 31 34 30 38 40 39 38 35 37 33 30 36 32 39 21 22 38 22 17 16 15 17 23 18
84 86 88 86 90 91 94 76 47 66 62 65 50 44 40 35 29 31 24 26 31 25 31 34 41 40 43 36 31 32 34 35 37 54 66 66 26 18 16 18 16 15 16 15
82 85 88 92 91 90 93 54 60 59 87 41 46 44 39 36 30 31 25 26 28 27 37 47 48 70 66 48 32 31 33 40 54 64 53 31 20 23 24 22 20 15 15 14
82 83 82 86 90 91 92 61 51 59 68 52 36 42 39 40 35 34 31 24 28 39 39 54 52 75 62 64 40 37 33 43 57 56 57 66 30 19 21 17 33 17 15 16
82 83 83 82 83 91 91 89 64 56 54 38 37 43 44 34 34 36 32 37 58 39 63 84 61 51 35 58 87 74 66 70 78 62 62 37 18 18 23 41 40 17 16 16
82 84 84 82 82 88 91 93 61 55 56 46 39 37 40 39 37 45 37 51 64 62 71 63 52 68 52 39 38 58 63 66 86 65 78 72 25 29 34 32 24 21 20 19
85 84 84 82 83 88 87 94 60 57 69 55 53 35 50 33 30 31 40 47 43 39 49 53 49 83 88 46 54 30 76 49 59 45 47 34 29 25 26 24 30 24 25 20
90 85 84 83 88 88 88 79 74 68 81 69 64 59 48 47 45 49 45 49 32 35 32 37 54 71 49 90 55 35 29 26 47 44 32 29 30 28 26 27 29 23 27 24
85 85 88 87 89 90 82 72 63 56 64 84 51 36 52 48 61 55 54 43 36 34 35 62 79 76 36 61 36 39 27 25 33 36 29 25 31 38 33 29 30 29 27 27
88 88 85 91 90 85 74 64 59 51 44 69 60 55 48 43 69 62 64 60 42 45 62 86 76 36 36 49 52 49 24 34 51 51 31 39 32 41 45 35 33 34 35 32
87 90 93 90 87 72 69 97 79 56 57 71 83 60 58 49 53 68 77 63 42 44 52 66 39 27 39 81 59 29 21 24 30 37 42 45 47 46 42 43 38 35 37 34
91 92 91 88 74 63 79 70 58 64 50 66 79 76 68 59 54 55 67 65 54 48 61 74 55 43 49 82 69 26 24 25 32 44 50 48 43 44 48 47 43 48 38 35
90 86 85 83 85 81 78 65 71 54 51 69 86 89 95 77 94 89 69 71 69 60 63 60 66 66 72 72 39 30 27 31 43 47 48 48 47 47 46 45 46 46 45 42
87 85 81 85 85 85 84 81 70 48 50 77 99 91 99 88 87 94 84 71 82 66 82 73 54 68 78 41 34 32 34 37 40 46 46 46 49 47 49 48 48 50 51 47
77 67 67 92 88 86 77 90 90 73 67 77 98 90 94 95 99 100 97 88 98 96 94 58 75 68 41 35 45 46 45 46 49 56 58 57 55 54 53 51 52 54 52 52
63 77 95 86 83 79 94 94 86 75 89 75 80 88 96 98 99 99 99 100 96 100 97 93 97 73 59 63 58 54 52 49 52 51 50 49 53 58 62 62 64 64 69 75
80 74 70 69 84 99 98 96 96 92 75 73 90 99 100 100 92 85 94 99 97 100 94 100 100 99 92 84 75 64 63 62 62 61 66 65 67 74 82 90 95 96 96 97
77 54 79 89 100 100 100 96 92 95 93 91 98 100 99 97 83 98 98 100 100 93 100 99 99 99 97 94 88 86 77 78 81 85 88 91 94 94 91 95 97 97 96 96
78 99 100 100 100 98 97 86 94 100 99 92 92 99 98 97 99 100 100 100 95 100 99 98 99 100 99 99 98 88 95 95 93 95 96 97 95 96 96 98 97 95 93 95
97 92 98 97 100 99 100 100 97 98 95 86 90 92 87 100 100 100 100 100 96 94 96 98 100 100 98 97 97 95 96 97 96 95 95 98 93 84 92 91 88 85 94 93
77 85 99 96 99 96 96 98 100 95 98 87 97 100 100 100 99 98 100 95 92 94 95 99 94 95 96 95 97 97 97 95 95 96 91 87 87 87 85 84 84 93 90 93
85 92 90 95 96 95 95 95 94 90 100 100 98 100 100 90 86 85 84 92 94 95 96 97 96 95 97 98 97 97 95 93 91 90 80 72 64 62 61 64 60 64 71 86

GFSNW_sfc_rhum_075.txt.gz
RH
82 83 84 85 87 87 94 97 100 86 75 100 95 85 61 58 50 39 41 39 38 48 45 46 58 50 34 26 30 24 27 40 45 33 22 18 21 31 35 67 53 57 68 56
82 84 85 86 89 91 96 99 98 83 77 97 95 69 64 59 60 53 45 44 34 37 39 56 71 56 41 32 32 36 36 47 60 42 29 22 25 27 28 37 48 54 78 63
84 84 85 88 90 91 98 100 100 99 97 78 76 84 73 72 55 56 47 43 39 43 46 49 86 80 51 41 36 54 44 51 52 54 39 32 34 27 26 34 60 53 54 44
86 87 88 89 90 92 98 100 98 83 98 97 93 69 65 69 70 51 45 50 50 45 50 63 75 72 72 51 53 44 44 52 43 36 26 25 30 31 29 29 32 50 42 38
84 84 84 87 90 92 99 100 97 78 69 74 95 84 83 68 60 48 51 55 46 43 48 58 69 71 84 80 44 44 43 53 47 46 36 26 28 28 27 26 27 26 29 36
85 85 85 86 86 92 98 95 73 74 79 84 87 82 70 69 56 48 40 42 46 47 44 59 68 81 85 82 74 56 45 55 56 56 41 38 52 36 27 27 25 27 32 28
86 86 86 86 86 90 95 93 81 80 97 72 87 66 64 64 58 62 42 38 40 35 29 68 76 70 81 82 76 58 62 63 69 79 68 63 40 26 25 28 24 22 25 26
84 85 86 88 88 88 97 94 82 83 89 78 64 72 65 62 57 57 49 40 33 33 49 75 87 95 91 78 71 58 55 67 84 73 66 52 38 30 33 32 33 24 26 26
82 83 84 84 88 88 96 95 80 73 79 74 53 63 61 66 66 61 54 41 42 50 45 75 82 91 89 77 63 50 51 66 82 90 82 75 52 35 27 31 49 29 29 30
84 82 83 83 84 87 95 95 90 76 81 60 50 59 62 54 57 62 54 55 59 48 80 76 89 75 70 86 80 74 85 90 88 95 99 80 41 29 35 50 56 29 34 34
85 85 83 83 82 83 96 94 92 91 93 78 53 52 61 63 59 68 59 59 64 75 83 85 90 94 70 65 60 72 77 82 87 89 92 95 40 37 42 47 45 35 42 42
89 86 86 83 82 81 87 99 94 81 96 89 75 63 46 56 55 65 61 52 53 72 85 87 86 90 88 68 80 61 76 81 82 75 77 59 54 41 47 44 44 44 47 44
88 87 85 84 83 80 84 97 95 95 98 98 91 84 60 54 57 58 82 76 50 60 68 90 85 82 73 88 80 74 66 74 89 80 65 58 68 52 52 44 43 40 41 42
87 89 86 85 83 83 84 96 95 96 98 99 92 64 65 56 59 60 66 69 70 73 66 87 91 98 57 81 68 69 60 65 71 69 51 45 50 46 48 49 52 44 44 42
90 93 91 90 86 84 89 92 94 94 95 96 88 69 56 56 64 63 64 70 77 91 90 98 97 86 81 85 73 74 46 54 68 71 47 51 53 54 54 51 59 56 52 49
94 92 89 86 86 86 92 98 97 94 97 88 96 72 62 65 62 64 72 72 83 94 96 96 94 88 91 95 83 54 43 39 36 46 52 64 65 56 53 56 58 54 53 52
88 86 87 87 85 92 98 95 94 93 97 87 96 94 74 64 66 79 86 82 88 92 95 95 92 85 88 91 85 46 40 35 33 38 60 66 63 66 58 57 53 55 54 57
87 89 90 92 85 85 96 89 82 90 85 78 97 97 90 90 93 95 90 94 94 95 94 97 96 90 94 92 54 41 37 37 58 62 62 65 61 58 56 54 60 60 61 59
92 91 91 91 95 99 99 82 84 92 81 96 98 96 100 94 97 92 94 94 99 93 97 94 89 98 97 70 58 44 43 37 46 63 60 60 62 60 61 61 63 68 74 81
88 93 94 100 96 79 79 87 94 90 83 90 97 94 98 98 99 100 97 98 98 98 97 91 98 94 87 86 80 76 70 69 66 69 75 71 71 76 77 80 77 78 79 81
94 96 99 96 88 90 85 96 94 86 93 93 92 92 94 97 98 98 98 98 100 100 98 84 100 94 91 84 86 75 76 77 78 80 76 68 78 84 89 90 89 88 88 90
81 87 87 91 90 96 89 96 94 89 88 90 96 97 98 98 96 99 97 99 99 98 95 99 100 99 96 90 93 85 81 83 85 84 89 90 90 91 94 95 96 94 92 92
82 83 93 92 99 94 88 100 96 95 98 99 98 99 99 99 98 99 100 100 99 98 98 99 100 99 96 94 91 93 87 89 90 90 88 90 92 90 93 97 94 92 94 96
96 98 96 98 98 98 98 99 99 100 100 98 97 100 99 100 99 99 100 99 99 99 99 99 99 98 94 92 90 91 96 94 94 94 93 94 93 96 96 95 94 93 93 96
92 87 98 97 99 98 98 98 99 98 98 100 99 100 97 100 100 100 100 99 98 97 98 99 98 96 96 97 96 96 96 95 96 96 96 96 96 94 95 95 94 92 93 92
85 90 96 93 96 96 96 96 97 98 96 99 100 100 99 99 99 92 97 93 96 98 98 98 97 98 97 97 97 97 97 96 96 96 95 95 95 94 95 94 93 94 92 94
88 98 93 97 98 98 98 98 96 97 99 100 99 96 99 96 92 92 93 98 98 98 98 98 97 97 97 97 96 96 96 95 95 95 94 94 94 91 84 90 87 79 81 89